Crane Lake, MN

5:13 AM CDT on August 26, 2019 (GMT -0500)
Crane Lake

Weather History for KCDD - June, 2019

Change the Weather History Date:

Monday, June 3, 2019

  Actual Average Record
Temperature  
Mean Temperature 50 °F -  
Max Temperature 66 °F 66 °F 82 °F (2017)
Min Temperature 35 °F 43 °F 26 °F (2013)
Degree Days  
Heating Degree Days 14    
Moisture  
Dew Point 39 °F    
Average Humidity 67    
Maximum Humidity 100    
Minimum Humidity 34    
Precipitation  
Precipitation 0.00 in - - ()
Sea Level Pressure  
Sea Level Pressure 30.00 in    
Wind  
Wind Speed 1 mph (SSE)    
Max Wind Speed 7 mph    
Max Gust Speed -    
Visibility 10 miles    
Events      
Averages and records for this station are not official NWS values.
T = Trace of Precipitation, MM = Missing Value Source: NWS Daily Summary

Daily Weather History Graph

Daily Weather History Graph

Search for Another Location

Airport or City:

Astronomy

Jun. 03, 2019 Rise Set
Actual Time 5:12 AM CDT 9:04 PM CDT
Civil Twilight 4:31 AM CDT 9:44 PM CDT
Nautical Twilight 3:36 AM CDT 10:40 PM CDT
Astronomical Twilight 2:12 AM CDT 12:06 AM CDT
Moon 5:38 AM CDT (6/3) 9:27 PM CDT (6/3)
Length of Visible Light 17h 12m
Length of Day
15h 51m
New Moon, 0% of the Moon is Illuminated
Jun 3
New Moon
Jun 10
First Quarter
Jun 17
Full
Jun 25
Last Quarter
Jul 2
New

Hourly Weather History & Observations

Time (CDT) Temp. Dew Point Humidity Pressure Visibility Wind Dir Wind Speed Gust Speed Precip Events Conditions
12:08 AM 39.2 °F 37.4 °F 93% 30.07 in 10.0 mi Calm Calm - N/A   Clear
12:48 AM 37.4 °F 35.6 °F 93% 30.08 in 10.0 mi Calm Calm - N/A   Clear
12:55 AM 37.4 °F 35.6 °F 93% 30.08 in 10.0 mi Calm Calm - N/A   Clear
1:07 AM 35.6 °F 33.8 °F 93% 30.07 in 10.0 mi Calm Calm - N/A   Clear
1:55 AM 35.6 °F 35.6 °F 100% 30.07 in 10.0 mi Calm Calm - N/A   Clear
2:55 AM 39.2 °F 37.4 °F 93% 30.07 in 10.0 mi Calm Calm - N/A   Clear
3:28 AM 39.2 °F 37.4 °F 93% 30.07 in 10.0 mi Calm Calm - N/A   Scattered Clouds
4:08 AM 41.0 °F 37.4 °F 87% 30.06 in 10.0 mi Calm Calm - N/A   Scattered Clouds
4:28 AM 41.0 °F 37.4 °F 87% 30.06 in 10.0 mi Calm Calm - N/A   Scattered Clouds
4:55 AM 39.2 °F 37.4 °F 93% 30.07 in 10.0 mi Calm Calm - N/A   Scattered Clouds
5:55 AM 41.0 °F 37.4 °F 87% 30.07 in 10.0 mi Calm Calm - N/A   Scattered Clouds
6:55 AM 42.8 °F 39.2 °F 87% 30.07 in 10.0 mi Calm Calm - N/A   Mostly Cloudy
7:08 AM 42.8 °F 39.2 °F 87% 30.07 in 10.0 mi Calm Calm - N/A   Scattered Clouds
7:55 AM 44.6 °F 37.4 °F 76% 30.08 in 10.0 mi Calm Calm - N/A   Overcast
8:28 AM 46.4 °F 39.2 °F 76% 30.08 in 10.0 mi Calm Calm - N/A   Overcast
9:08 AM 46.4 °F 39.2 °F 76% 30.09 in 10.0 mi Calm Calm - N/A   Overcast
9:48 AM 48.2 °F 39.2 °F 71% 30.07 in 10.0 mi Calm Calm - N/A   Overcast
9:55 AM 48.2 °F 39.2 °F 71% 30.06 in 10.0 mi Calm Calm - N/A   Overcast
10:55 AM 51.8 °F 37.4 °F 58% 30.06 in 10.0 mi South 6.9 mph - N/A   Mostly Cloudy
11:55 AM 55.4 °F 39.2 °F 54% 30.05 in 10.0 mi Calm Calm - N/A   Mostly Cloudy
12:08 PM 53.6 °F 37.4 °F 54% 30.05 in 10.0 mi Calm Calm - N/A   Mostly Cloudy
12:48 PM 55.4 °F 37.4 °F 51% 30.04 in 10.0 mi SSE 3.5 mph - N/A   Overcast
12:55 PM 55.4 °F 37.4 °F 51% 30.04 in 10.0 mi Calm Calm - N/A   Overcast
1:28 PM 57.2 °F 37.4 °F 48% 30.03 in 10.0 mi Calm Calm - N/A   Scattered Clouds
1:55 PM 59.0 °F 37.4 °F 45% 30.02 in 10.0 mi Calm Calm - N/A   Clear
3:08 PM 62.6 °F 37.4 °F 39% 29.99 in 10.0 mi Calm Calm - N/A   Scattered Clouds
3:28 PM 64.4 °F 39.2 °F 40% 29.98 in 10.0 mi SSW 3.5 mph - N/A   Clear
3:55 PM 64.4 °F 35.6 °F 34% 29.97 in 10.0 mi SSE 4.6 mph - N/A   Clear
4:55 PM 64.4 °F 37.4 °F 37% 29.95 in 10.0 mi SSE 3.5 mph - N/A   Clear
5:55 PM 66.2 °F 39.2 °F 37% 29.92 in 10.0 mi SSE 3.5 mph - N/A   Scattered Clouds
6:08 PM 64.4 °F 39.2 °F 40% 29.91 in 10.0 mi SSE 3.5 mph - N/A   Mostly Cloudy
6:55 PM 64.4 °F 41.0 °F 42% 29.90 in 10.0 mi Calm Calm - N/A   Mostly Cloudy
8:07 PM 62.6 °F 44.6 °F 52% 29.88 in 10.0 mi Calm Calm - N/A   Mostly Cloudy
8:28 PM 60.8 °F 46.4 °F 59% 29.87 in 10.0 mi Calm Calm - N/A   Scattered Clouds
8:47 PM 57.2 °F 44.6 °F 63% 29.87 in 10.0 mi Calm Calm - N/A   Scattered Clouds
8:55 PM 57.2 °F 44.6 °F 63% 29.87 in 10.0 mi Calm Calm - N/A   Scattered Clouds
9:55 PM 57.2 °F 44.6 °F 63% 29.87 in 10.0 mi Calm Calm - N/A   Scattered Clouds
10:07 PM 57.2 °F 44.6 °F 63% 29.87 in 10.0 mi Calm Calm - N/A   Scattered Clouds
10:55 PM 55.4 °F 42.8 °F 63% 29.84 in 10.0 mi SSE 3.5 mph - N/A   Scattered Clouds
11:08 PM 55.4 °F 42.8 °F 63% 29.84 in 10.0 mi Calm Calm - N/A   Scattered Clouds